www.pogodaiklimat.ru

Погода и климат >> Архив погоды >> Россия >> Чукотка >> Анюйск


ПОГОДА в Анюйске

  • Прогноз погоды в Анюйске
  • Монитор погоды в Анюйске

АРХИВ ПОГОДЫ в Анюйске

Время (UTC), дата Ветер
(напр.,м/с)
 
Видим.   Явления Облачность Т
(С)
Тd
(С)
f
(%)
Тe
(С)
Тes
(С)
Комфортность P
(гПа)
Po
(гПа)
Тmin
(С)
Tmax
(С)
R
(мм)
R24
(мм)
S
(см)
18 14.05 С 1 н/о н/о -9.7 -12.0 83 -12 -12 1024.7 1021.4
21 14.05 З 1 н/о н/о -8.9 -11.6 81 -11 -11 1025.1 1021.8 -10.2
00 15.05 СЗ 1 н/о н/о -7.1 -11.1 73 -9 -9 1025.0 1021.7
03 15.05 З 2 н/о н/о -4.4 -10.5 62 -8 -8 1024.4 1021.1
06 15.05 З 2 н/о н/о -3.3 -10.0 60 -7 -7 1023.4 1020.1
09 15.05 СЗ 1 н/о н/о -3.3 -9.8 61 -5 -5 1023.0 1019.8 -2.1
12 15.05 СВ 2 н/о н/о -5.4 -10.0 70 -9 -9 1022.3 1019.0
15 15.05 В 2 н/о н/о -6.3 -9.9 76 -11 -11 1021.9 1018.6
18 15.05 В 2 н/о н/о -3.2 -9.0 64 -7 -7 1021.3 1018.1
21 15.05 Ю 2 н/о н/о +0.7 -7.7 53 -2 -2 1020.6 1017.4 -6.3
00 16.05 ЮЗ 2 н/о н/о +3.5 -7.3 45 +1 +1 1019.3 1016.1
03 16.05 З 2 н/о н/о +6.5 -6.8 38 +5 +5 1018.0 1014.9
06 16.05 СЗ 2 н/о н/о +6.3 -7.1 38 +5 +5 1016.9 1013.8
09 16.05 СВ 1 н/о н/о +4.3 -7.1 43 +4 +4 1015.5 1012.4 +7.9
12 16.05 СВ 3 н/о н/о +2.2 -6.1 54 -1 -1 1014.6 1011.5
15 16.05 СВ 3 н/о н/о +2.1 -5.9 55 -2 -2 1012.8 1009.7
18 16.05 В 2 н/о н/о +3.1 -4.9 56 +1 +1 1011.4 1008.3
21 16.05 ЮВ 2 н/о н/о +5.4 -1.8 60 +3 +3 1010.3 1007.2 +1.9
00 17.05 ЮЗ 2 н/о н/о +3.3 +1.1 85 0 0 1010.2 1007.1
03 17.05 СЗ 4 н/о н/о +0.6 +0.4 99 -5 -5 1011.4 1008.2
06 17.05 СЗ 6-10
{11}
н/о н/о -1.7 -4.1 84 -9 -9 1013.4 1010.2
09 17.05 СЗ 6-10
{11}
н/о н/о -4.3 -5.4 92 -12 -12 1015.4 1012.2 +5.8
12 17.05 СЗ 5
{11}
н/о н/о -5.3 -5.8 96 -13 -13 1016.7 1013.5
15 17.05 СЗ 4 н/о н/о -5.9 -6.7 94 -13 -13 1017.7 1014.4
18 17.05 СЗ 4 н/о н/о -6.4 -6.7 98 -13 -13 1018.6 1015.4
21 17.05 СЗ 3 н/о н/о -6.3 -8.1 87 -12 -12 1019.4 1016.2 -6.6
00 18.05 С 4 н/о н/о -4.9 -8.0 79 -11 -11 1019.8 1016.6
03 18.05 СЗ 4
{10}
н/о н/о -4.4 -8.6 72 -10 -10 1020.8 1017.5
06 18.05 С 4
{10}
н/о н/о -4.8 -8.5 75 -11 -11 1021.2 1017.9
09 18.05 С 4
{10}
н/о н/о -6.5 -9.6 79 -13 -13 1021.7 1018.4 -4.2
12 18.05 С 3 н/о н/о -8.2 -10.9 81 -14 -14 1022.4 1019.1
15 18.05 С 3 н/о н/о -8.5 -11.5 79 -14 -14 1022.6 1019.3
18 18.05 С 3 н/о н/о -8.6 -12.1 76 -14 -14 1022.4 1019.1
21 18.05 СЗ 2 н/о н/о -6.8 -11.7 68 -11 -11 1021.8 1018.5 -9.0
00 19.05 С 2 н/о н/о -3.6 -10.9 57 -7 -7 1020.2 1017.0
03 19.05 С 2 н/о н/о -1.3 -9.5 54 -5 -5 1018.3 1015.1
06 19.05 СЗ 4 н/о н/о -1.7 -8.6 59 -7 -7 1016.1 1012.9
09 19.05 С 4 н/о н/о -5.0 -9.1 73 -11 -11 1014.7 1011.5 -0.5
12 19.05 С 3 н/о н/о -6.6 -9.2 82 -12 -12 1013.4 1010.2
15 19.05 СЗ 2 н/о н/о -7.6 -9.4 87 -12 -12 1012.6 1009.4
18 19.05 СЗ 2 н/о н/о -6.3 -8.6 84 -11 -11 1011.5 1008.3
21 19.05 СЗ 2 н/о н/о -3.1 -7.1 74 -7 -7 1010.7 1007.6 -7.6
00 20.05 С 2 н/о н/о +2.7 -4.5 59 0 0 1010.1 1007.0
03 20.05 С 3 н/о н/о +3.1 0.0 80 -1 -1 1010.0 1006.9
06 20.05 С 3 н/о н/о +3.7 +1.0 83 -0 -0 1009.9 1006.8
09 20.05 С 2 н/о н/о +2.3 +2.2 99 -1 -1 1011.0 1007.9 +4.0
12 20.05 З 3 н/о н/о -2.3 -2.5 99 -8 -8 1013.4 1010.3

 

Местоположение метеостанции Анюйск (Чукотка, Россия): широта 68.35 долгота 161.50 высота над уровнем моря 41 м.

В архиве по умолчанию представлена погода в Анюйске за последнюю неделю. Архивные данные за месяц целиком и за предыдущие месяцы, начиная с января 2011 года, Вы можете получить, выбрав интересующий диапазон дат из раскрывающегося списка и нажав кнопку "Ввод!".


*Определитесь, кто Вы:
робот инопланетянин человек

Внимание! Время в таблицах - всемирное. Для получения местного времени необходимо прибавить поправку, которая равна 12 ч.

Смотрите также архив погоды в соседних городах и на ближайших метеорологических станциях:

Погода в Константиновской (Чукотка, Россия) (28 км)
Погода в Черском (Якутия, Россия) (43 км)
Погода в Островном (Чукотка, Россия) (110 км)
Погода в Колымской (Якутия, Россия) (125 км)
Погода в Бухте Амбарчик (Чукотка, Россия) (145 км)
Погода в Билибино (Чукотка, Россия) (205 км)
Погода в Баимке (Чукотка, Россия) (233 км)
Погода в Раучуе (Чукотка, Россия) (237 км)
Погода в Илирнее (Чукотка, Россия) (295 км)
Погода в Андрюшкино (Якутия, Россия) (296 км)

Пояснения к столбцам:

Ветер - указаны скорость ветра в м/с - средняя за 10 мин, порывы в срок и между сроками (в фигурных скобках) и направление, откуда дует ветер: С - северный, СВ - северо-восточный, В - восточный, ЮВ - юго-восточный, Ю - южный, ЮЗ - юго-западный, З - западный, СЗ - северо-западный.
Видимость - горизонтальная дальность видимости в метрах или километрах. При видимости от 1 до 10 км при отсутствии осадков обычно наблюдается дымка, при ухудшении видимости до 1 км и менее - туман. В сухую погоду видимость может ухудшаться дымом, пылью или мглою.
Явления - указаны атмосферные явления, наблюдавшиеся в срок или в последний час перед сроком; фигурными скобками обозначены явления, наблюдавшиеся между сроками (за 1-3 часа до срока); квадратными скобками обозначены град или гололедные отложения с указанием их диаметра в мм.
Облачность - указаны через наклонную черту общая и нижняя облачность в баллах и высота нижней границы облаков в метрах; квадратными скобками обозначены формы облаков: Ci - перистые, Cs - перисто-слоистые, Cc - перисто-кучевые, Ac - высококучевые, As - высокослоистые, Sc - слоисто-кучевые, Ns - слоисто-дождевые, Cu - кучевые, Cb - кучево-дождевые. Подробнее классификацию облаков см. в Атласе облаков (PDF).
T - Температура воздуха - температура, измеренная на высоте 2 м над землей.
Td - Температура точки росы - температура, при понижении до которой содержащийся в воздухе водяной пар достигнет насыщения.
f - Относительная влажность воздуха - влажноcть воздуха, измеренная на высоте 2 м над землей.
Te - Эффективная температура - температура, которую ощущает одетый по сезону человек в тени. Характеристика душности погоды. При расчете учитывается влияние влажности воздуха и скорости ветра на теплоощущения человека.
Tes - Эффективная температура на солнце - температура, которую ощущает человек, с поправкой на солнечный нагрев. Характеристика знойности погоды. Зависит от высоты солнца над горизонтом, облачности и скорости ветра. Ночью, в пасмурную погоду, а также при ветре 12 м/с и более поправка равна нулю.
P - Атмосферное давление - приведенное к уровню моря атмосферное давление.
Po - Атмосферное давление - измеренное на уровне метеостанции атмосферное давление.
Tmin - Минимальная температура - минимум температуры воздуха на высоте 2 м над землей.
Tmax - Максимальная температура - максимум температуры воздуха на высоте 2 м над землей.
R - Количество осадков - Количество выпавших осадков за период времени, мм. При наведении курсора мыши на число - период времени, за который выпало указанное количество осадков.
R24 - Количество осадков - Количество выпавших осадков за 24 часа, мм.
S - Снежный покров - Высота снежного покрова, см. При наведении курсора мыши на число - состояние снежного покрова и степень покрытия местности в баллах.